GW0720 Weather Reports


Display with metric or nautical units.
time (UTC)temp
F
wind
direction
speed
MPH
gust
MPH
rain 1hr
in
rain 24hr
in
rain mn
in
humidity
%
barometer
mb
20260902170124 94 0 0.0 4.0 0.00 0.00 0.00 58 1019.1
20260902164713 93 82 0.0 3.0 0.00 0.00 0.00 58 1019.2
20260902164600 93 82 0.0 3.0 0.00 0.00 0.00 58 1019.2
20260902163138 93 235 1.0 4.0 0.00 0.00 0.00 58 1019.3
20260902162003 93 0 0.0 1.0 0.00 0.00 0.00 62 1019.3
20260902160104 93 217 0.0 3.0 0.00 0.00 0.00 61 1019.2
20260902154601 93 0 0.0 2.0 0.00 0.00 0.00 62 1019.3
20260902151556 93 0 0.0 1.0 0.00 0.00 0.00 60 1019.4
20260902150155 91 0 0.0 4.0 0.00 0.00 0.00 65 1019.6
20260902144737 90 0 0.0 6.0 0.00 0.00 0.00 68 1019.6
20260902143106 89 217 1.0 3.0 0.00 0.00 0.00 67 1019.5
20260902133230 81 0 0.0 1.0 0.00 0.00 0.00 83 1018.8
20260902131628 79 246 0.0 3.0 0.00 0.00 0.00 85 1018.7
20260902130059 77 0 0.0 1.0 0.00 0.00 0.00 92 1018.8
20260902124629 76 0 0.0 0.0 0.00 0.00 0.00 95 1018.7
20260902123154 76 0 0.0 0.0 0.00 0.00 0.00 96 1018.7
20260902121603 75 0 0.0 0.0 0.00 0.00 0.00 96 1018.6
20260902114601 74 0 0.0 0.0 0.00 0.00 0.00 96 1018.3
20260902113057 74 0 0.0 0.0 0.00 0.00 0.00 96 1018.4
20260902111600 74 0 0.0 0.0 0.00 0.00 0.00 95 1018.5
20260902110111 74 0 0.0 0.0 0.00 0.00 0.00 96 1018.4
20260902104600 74 0 0.0 0.0 0.00 0.00 0.00 95 1018.3
20260902103057 74 0 0.0 0.0 0.00 0.00 0.00 96 1018.1
20260902101557 74 0 0.0 0.0 0.00 0.00 0.00 96 1018.0
20260902100059 74 0 0.0 0.0 0.00 0.00 0.00 96 1017.7
20260902094600 74 0 0.0 0.0 0.00 0.00 0.00 96 1017.7
20260902093056 74 0 0.0 0.0 0.00 0.00 0.00 96 1017.7
20260902091603 74 0 0.0 0.0 0.00 0.00 0.00 96 1017.6
20260902090059 73 0 0.0 0.0 0.00 0.00 0.00 95 1017.4
20260902084601 73 0 0.0 0.0 0.00 0.00 0.00 95 1017.7
20260902083058 73 0 0.0 0.0 0.00 0.00 0.00 95 1017.6
20260902081554 73 0 0.0 0.0 0.00 0.00 0.00 95 1017.4
20260902080059 73 0 0.0 0.0 0.00 0.00 0.00 95 1017.3
20260902074601 73 0 0.0 0.0 0.00 0.00 0.00 95 1017.4
20260902073057 74 0 0.0 0.0 0.00 0.00 0.00 95 1017.5
20260902071604 73 0 0.0 0.0 0.00 0.00 0.00 94 1017.5
20260902070110 74 0 0.0 0.0 0.00 0.00 0.00 94 1017.5
20260902064559 74 0 0.0 0.0 0.00 0.00 0.00 94 1017.5
20260902063108 74 0 0.0 0.0 0.00 0.00 0.00 94 1017.4
20260902061617 74 0 0.0 0.0 0.00 0.00 0.00 94 1017.4
20260902060115 74 0 0.0 0.0 0.00 0.00 0.00 93 1017.4
20260902054601 74 0 0.0 0.0 0.00 0.00 0.00 93 1017.4
20260902053103 74 0 0.0 0.0 0.00 0.00 0.00 93 1017.5
20260902051603 75 0 0.0 0.0 0.00 0.00 0.00 93 1017.7
20260902044557 75 0 0.0 0.0 0.00 0.00 0.00 93 1017.5
20260902043059 75 0 0.0 0.0 0.00 0.00 0.00 93 1017.4
20260902041601 76 0 0.0 0.0 0.00 0.00 0.00 93 1017.2
20260902040103 75 0 0.0 0.0 0.00 0.00 0.00 93 1017.1
20260902034554 75 0 0.0 0.0 0.00 0.00 0.00 92 1017.0
20260902033054 75 0 0.0 0.0 0.00 0.00 0.00 91 1016.8
20260902031606 76 0 0.0 0.0 0.00 0.00 0.00 91 1016.8
20260902030057 76 0 0.0 0.0 0.00 0.00 0.00 91 1016.7
20260902024600 76 0 0.0 0.0 0.00 0.00 0.00 90 1016.6
20260902023056 77 0 0.0 0.0 0.00 0.00 0.00 90 1016.7
20260902021632 77 0 0.0 0.0 0.00 0.00 0.00 89 1016.8
20260902020059 77 0 0.0 0.0 0.00 0.00 0.00 89 1017.0
20260902014558 78 0 0.0 0.0 0.00 0.00 0.00 88 1016.5
20260902013058 78 0 0.0 0.0 0.00 0.00 0.00 87 1016.3
20260902011557 78 0 0.0 0.0 0.00 0.00 0.00 86 1016.1
20260902010108 79 0 0.0 0.0 0.00 0.00 0.00 86 1016.1
20260902004604 79 0 0.0 0.0 0.00 0.00 0.00 85 1016.2
20260902003102 80 0 0.0 0.0 0.00 0.00 0.00 83 1016.1
20260902001556 81 0 0.0 0.0 0.00 0.00 0.00 82 1016.0
20260902000106 82 0 0.0 0.0 0.00 0.00 0.00 80 1015.8
20260901234601 83 0 0.0 0.0 0.00 0.00 0.00 80 1016.0
20260901233111 84 0 0.0 0.0 0.00 0.00 0.00 77 1016.0
20260901231602 85 0 0.0 0.0 0.00 0.00 0.00 74 1016.1
20260901230104 86 0 0.0 0.0 0.00 0.00 0.00 70 1016.4
20260901224605 87 0 0.0 0.0 0.00 0.00 0.00 69 1016.6
20260901223111 88 0 0.0 1.0 0.00 0.00 0.00 67 1016.6
20260901221600 89 0 0.0 1.0 0.00 0.00 0.00 65 1016.7
20260901220107 90 0 0.0 2.0 0.00 0.00 0.00 63 1016.8
20260901214600 91 262 0.0 2.0 0.00 0.00 0.00 61 1016.9
20260901213057 91 0 0.0 4.0 0.00 0.00 0.00 60 1016.8
20260901211600 91 0 0.0 3.0 0.00 0.00 0.00 59 1016.8
20260901210111 92 0 0.0 2.0 0.00 0.00 0.00 61 1016.9
20260901204559 93 38 0.0 2.0 0.00 0.00 0.00 53 1016.9
20260901203115 93 0 0.0 4.0 0.00 0.00 0.00 56 1017.0
20260901201601 94 0 0.0 3.0 0.00 0.00 0.00 55 1017.1
20260901200059 93 0 0.0 3.0 0.00 0.00 0.00 51 1017.2
20260901194603 94 0 0.0 4.0 0.00 0.00 0.00 53 1017.3
20260901193106 94 0 0.0 4.0 0.00 0.00 0.00 51 1017.5
20260901191606 96 0 0.0 3.0 0.00 0.00 0.00 49 1017.6
20260901190115 95 0 0.0 4.0 0.00 0.00 0.00 53 1017.8
20260901184601 94 0 1.0 4.0 0.00 0.00 0.00 50 1018.0
20260901183059 94 242 0.0 4.0 0.00 0.00 0.00 51 1018.2
20260901181557 95 0 0.0 4.0 0.00 0.00 0.00 54 1018.2
20260901180108 94 229 0.0 2.0 0.00 0.00 0.00 53 1018.0
20260901174623 95 0 0.0 3.0 0.00 0.00 0.00 53 1018.0
20260901173318 94 65 0.0 6.0 0.00 0.00 0.00 54 1017.8
20260901171606 93 0 0.0 3.0 0.00 0.00 0.00 55 1018.0